User: anonymous   Login
Location: Bishop's University Astronomical Observatory
(45.3661°N, 71.8475°W)
Time: 22:34:10
(UTC-04:00)
Language:

Meteor 2-5 Rocket - Orbit

View from above orbital plane
View from above orbital plane
View from above satellite
View from above satellite

Ground track
Ground track

The orbit data is extracted from the following two-line orbital elements,

1 11608U 79095B   17267.57465500 -.00000052 +00000-0 -38589-4 0  9997
2 11608 081.2116 114.5750 0053141 242.7643 116.8105 14.06121560943792
Epoch (UTC): 24 September 2017 13:47:30
Eccentricity: 0.0053141
inclination: 81.2116°
perigee height: 834 km
apogee height: 911 km
right ascension of ascending node: 114.5750°
argument of perigee: 242.7643°
revolutions per day: 14.06121560
mean anomaly at epoch: 116.8105°
orbit number at epoch: 94379

The dashed part of the orbit path shows where the satellite is in the earth's shadow,  

DLR